GW4394 Weather Reports


time (UTC)temp
F
wind
direction
speed
knots
gust
knots
rain 1hr
in
rain 24hr
in
rain mn
in
humidity
%
barometer
mb
20260510143702 65 160 0.0 0.9 0.00 0.00 0.00 70 1017.3
20260510143159 65 238 1.7 1.7 0.00 0.00 0.00 69 1017.3
20260510142655 65 329 3.5 5.2 0.00 0.00 0.00 68 1017.4
20260510142152 65 164 0.0 0.0 0.00 0.00 0.00 71 1017.3
20260510141649 64 115 0.0 2.6 0.00 0.00 0.00 70 1017.2
20260510141147 64 14 0.0 2.6 0.00 0.00 0.00 69 1017.2
20260510140644 64 170 0.0 5.2 0.00 0.00 0.00 70 1017.3
20260510140142 64 204 0.0 3.5 0.00 0.00 0.00 70 1017.2
20260510135638 64 132 0.0 1.7 0.00 0.00 0.00 72 1016.8
20260510135134 63 170 0.9 3.5 0.00 0.00 0.00 71 1016.9
20260510134631 64 133 0.9 1.7 0.00 0.00 0.00 71 1016.8
20260510134129 64 125 0.0 0.9 0.00 0.00 0.00 71 1016.7
20260510133625 63 56 0.0 3.5 0.00 0.00 0.00 71 1016.8
20260510133120 63 189 0.0 1.7 0.00 0.00 0.00 72 1016.5
20260510132617 63 94 0.0 0.0 0.00 0.00 0.00 73 1016.5
20260510132115 63 165 0.0 0.0 0.00 0.00 0.00 74 1016.2
20260510131612 62 200 0.0 1.7 0.00 0.00 0.00 73 1016.4
20260510131109 62 202 0.0 0.0 0.00 0.00 0.00 75 1016.1
20260510130605 62 119 0.0 0.0 0.00 0.00 0.00 77 1016.0
20260510125559 61 83 0.0 5.2 0.00 0.00 0.00 76 1016.1
20260510125055 61 32 0.0 0.9 0.00 0.00 0.00 78 1015.9
20260510124552 61 83 0.9 1.7 0.00 0.00 0.00 78 1015.8
20260510124049 60 142 0.0 0.0 0.00 0.00 0.00 79 1015.8
20260510123544 60 167 0.0 0.0 0.00 0.00 0.00 79 1015.6
20260510123041 60 117 0.0 0.0 0.00 0.00 0.00 79 1015.4
20260510122537 60 172 0.0 0.9 0.00 0.00 0.00 79 1015.2
20260510122033 60 65 0.0 0.0 0.00 0.00 0.00 80 1015.2
20260510121530 60 172 0.0 1.7 0.00 0.00 0.00 80 1015.5
20260510121027 60 138 0.0 3.5 0.00 0.00 0.00 81 1015.3
20260510120525 60 159 0.0 0.0 0.00 0.00 0.00 82 1015.1
20260510120021 60 157 0.0 1.7 0.00 0.00 0.00 81 1015.0
20260510115517 60 68 0.0 0.0 0.00 0.00 0.00 81 1015.1
20260510115014 59 199 0.0 0.0 0.00 0.00 0.00 81 1015.1
20260510114510 60 151 0.0 0.0 0.00 0.00 0.00 81 1015.1
20260510114006 60 53 0.0 0.0 0.00 0.00 0.00 81 1014.9
20260510113501 59 118 0.0 0.0 0.00 0.00 0.00 81 1014.6
20260510112959 59 167 0.0 0.0 0.00 0.00 0.00 81 1014.4
20260510112456 59 153 0.0 0.0 0.00 0.00 0.00 80 1014.4
20260510111952 59 169 0.0 0.0 0.00 0.00 0.00 80 1014.3
20260510111448 59 166 0.0 0.0 0.00 0.00 0.00 80 1014.2
20260510110944 58 85 0.0 0.0 0.00 0.00 0.00 81 1014.3
20260510110441 58 175 0.0 0.0 0.00 0.00 0.00 81 1014.1
20260510105937 58 179 0.0 0.0 0.00 0.00 0.00 82 1014.1
20260510105432 58 179 0.0 0.0 0.00 0.00 0.00 81 1014.1
20260510104928 58 165 0.0 0.0 0.00 0.00 0.00 83 1014.1
20260510104425 57 140 0.0 0.0 0.00 0.00 0.00 88 1014.0
20260510103921 56 147 0.0 0.0 0.00 0.00 0.00 90 1014.3
20260510103419 56 146 0.0 0.0 0.00 0.00 0.00 91 1014.0
20260510102914 56 133 0.0 0.0 0.00 0.00 0.00 91 1014.2
20260510102410 56 169 0.0 0.0 0.00 0.00 0.00 91 1014.2
20260510101907 56 169 0.0 0.0 0.00 0.00 0.00 91 1014.1
20260510101405 56 169 0.0 0.0 0.00 0.00 0.00 91 1014.2
20260510100902 56 169 0.0 0.0 0.00 0.00 0.00 91 1013.9
20260510100359 56 169 0.0 0.0 0.00 0.00 0.00 91 1013.8
20260510095855 56 169 0.0 0.0 0.00 0.00 0.00 90 1013.4
20260510095350 56 170 0.0 0.0 0.00 0.00 0.00 90 1013.6
20260510094850 56 170 0.0 0.0 0.00 0.00 0.00 90 1013.7
20260510094345 56 170 0.0 0.0 0.00 0.00 0.00 90 1013.6
20260510093842 56 170 0.0 0.0 0.00 0.00 0.00 90 1013.3
20260510093337 56 170 0.0 0.0 0.00 0.00 0.00 90 1013.4
20260510092834 57 170 0.0 0.0 0.00 0.00 0.00 89 1013.6
20260510092330 57 170 0.0 0.0 0.00 0.00 0.00 89 1013.2
20260510091826 57 170 0.0 0.0 0.00 0.00 0.00 89 1013.0
20260510091323 57 170 0.0 0.0 0.00 0.00 0.00 89 1013.2
20260510090819 57 170 0.0 0.0 0.00 0.00 0.00 88 1013.1
20260510090317 57 170 0.0 0.0 0.00 0.00 0.00 87 1013.1
20260510085812 58 170 0.0 0.0 0.00 0.00 0.00 86 1013.1
20260510085307 58 170 0.0 0.0 0.00 0.00 0.00 85 1012.9
20260510084803 58 170 0.0 0.0 0.00 0.00 0.00 85 1013.0
20260510084300 58 175 0.0 0.0 0.00 0.00 0.00 85 1012.9
20260510083756 58 175 0.0 0.0 0.00 0.00 0.00 84 1012.8
20260510083253 59 176 0.0 0.0 0.00 0.00 0.00 84 1012.8
20260510082749 59 165 0.0 0.0 0.00 0.00 0.00 83 1012.6
20260510082246 59 143 0.0 0.0 0.00 0.00 0.00 83 1012.7
20260510081745 59 178 0.0 0.0 0.00 0.00 0.00 83 1012.6
20260510081241 59 156 0.0 0.0 0.00 0.00 0.00 82 1012.6
20260510080737 59 155 0.0 0.0 0.00 0.00 0.00 81 1013.1
20260510080232 59 156 0.0 0.0 0.00 0.00 0.00 82 1013.2
20260510075729 58 144 0.0 0.0 0.00 0.00 0.00 84 1013.1
20260510075227 57 170 0.0 0.0 0.00 0.00 0.00 86 1013.0
20260510074724 57 169 0.0 0.0 0.00 0.00 0.00 85 1013.1
20260510074220 57 176 0.0 0.0 0.00 0.00 0.00 86 1013.1
20260510073717 57 177 0.0 0.0 0.00 0.00 0.00 85 1012.8
20260510073212 57 176 0.0 0.0 0.00 0.00 0.00 85 1012.9
20260510072708 57 177 0.0 0.0 0.00 0.00 0.00 83 1012.8
20260510072205 58 171 0.0 0.0 0.00 0.00 0.00 82 1012.8
20260510071702 57 171 0.0 0.0 0.00 0.00 0.00 83 1012.8
20260510071159 57 172 0.0 0.0 0.00 0.00 0.00 82 1012.7
20260510070656 58 172 0.0 0.0 0.00 0.00 0.00 82 1012.8
20260510070154 58 172 0.0 0.0 0.00 0.00 0.00 81 1012.6
20260510065649 58 172 0.0 0.0 0.00 0.00 0.00 80 1012.6
20260510065145 59 172 0.0 0.0 0.00 0.00 0.00 80 1012.8
20260510064642 59 173 0.0 0.0 0.00 0.00 0.00 78 1012.6
20260510064139 59 173 0.0 0.0 0.00 0.00 0.00 78 1012.7
20260510063636 60 173 0.0 0.0 0.00 0.00 0.00 77 1012.7
20260510063132 61 173 0.0 0.0 0.00 0.00 0.00 76 1012.7
20260510062628 62 172 0.0 0.0 0.00 0.00 0.00 74 1012.7
20260510062124 62 173 0.0 0.0 0.00 0.00 0.00 73 1012.7
20260510061620 63 172 0.0 0.0 0.00 0.00 0.00 70 1012.7
20260510061118 62 166 0.0 0.0 0.00 0.00 0.00 73 1012.8
20260510060613 60 121 0.0 0.0 0.00 0.00 0.00 76 1013.0
20260510060110 59 121 0.0 0.0 0.00 0.00 0.00 81 1012.7
20260510055606 59 176 0.0 0.0 0.00 0.00 0.00 81 1012.4
20260510055105 59 177 0.0 0.0 0.00 0.00 0.00 81 1012.4
20260510054600 59 177 0.0 0.0 0.00 0.00 0.00 81 1012.4
20260510054055 59 177 0.0 0.0 0.00 0.00 0.00 81 1012.4
20260510053555 59 177 0.0 0.0 0.00 0.00 0.00 81 1012.6
20260510053052 59 177 0.0 0.0 0.00 0.00 0.00 81 1012.4
20260510052548 59 177 0.0 0.0 0.00 0.00 0.00 81 1012.6
20260510052044 60 177 0.0 0.0 0.00 0.00 0.00 80 1012.5
20260510051540 60 178 0.0 0.0 0.00 0.00 0.00 80 1012.6
20260510051036 60 177 0.0 0.0 0.00 0.00 0.00 80 1012.5
20260510050534 61 170 0.0 0.0 0.00 0.00 0.00 79 1012.4
20260510050031 60 170 0.0 0.0 0.00 0.00 0.00 80 1012.2
20260510045528 60 170 0.0 0.0 0.00 0.00 0.00 80 1012.1
20260510045024 60 170 0.0 0.0 0.00 0.00 0.00 80 1012.2
20260510044521 60 170 0.0 0.0 0.00 0.00 0.00 80 1012.2
20260510044019 60 170 0.0 0.0 0.00 0.00 0.00 81 1012.3
20260510043514 60 170 0.0 0.0 0.00 0.00 0.00 80 1012.3
20260510043009 60 170 0.0 0.0 0.00 0.00 0.00 80 1012.2
20260510042503 60 170 0.0 0.0 0.00 0.00 0.00 81 1012.4
20260510041958 60 170 0.0 0.0 0.00 0.00 0.00 80 1012.3
20260510041456 60 170 0.0 0.0 0.00 0.00 0.00 80 1012.4
20260510040954 59 170 0.0 0.0 0.00 0.00 0.00 79 1012.1
20260510040450 60 170 0.0 0.0 0.00 0.00 0.00 78 1011.9
20260510035945 60 170 0.0 0.0 0.00 0.00 0.00 78 1011.9
20260510035443 60 170 0.0 0.0 0.00 0.00 0.00 77 1011.9
20260510034942 61 170 0.0 0.0 0.00 0.00 0.00 74 1011.8
20260510034441 61 171 0.0 0.0 0.00 0.00 0.00 73 1012.0
20260510033937 60 170 0.0 0.0 0.00 0.00 0.00 71 1011.9
20260510033433 61 170 0.0 0.0 0.00 0.00 0.00 71 1012.0
20260510032930 61 162 0.0 0.0 0.00 0.00 0.00 70 1011.9
20260510032427 61 181 0.0 0.0 0.00 0.00 0.00 72 1011.8
20260510031922 61 181 0.0 0.0 0.00 0.00 0.00 72 1011.7
20260510031418 61 181 0.0 0.0 0.00 0.00 0.00 71 1011.6
20260510030913 61 181 0.0 0.0 0.00 0.00 0.00 71 1011.5
20260510030409 62 181 0.0 0.0 0.00 0.00 0.00 69 1011.6
20260510025907 62 181 0.0 0.0 0.00 0.00 0.00 70 1011.4
20260510025404 62 181 0.0 0.0 0.00 0.00 0.00 69 1011.5
20260510024901 63 181 0.0 0.0 0.00 0.00 0.00 68 1011.4
20260510024358 63 181 0.0 0.0 0.00 0.00 0.00 67 1011.2
20260510023854 63 181 0.0 0.0 0.00 0.00 0.00 66 1011.0
20260510023350 64 181 0.0 0.0 0.00 0.00 0.00 67 1010.6
20260510022848 64 181 0.0 0.0 0.00 0.00 0.00 65 1010.6
20260510022347 64 181 0.0 0.0 0.00 0.00 0.00 64 1010.5
20260510021846 65 181 0.0 0.0 0.00 0.00 0.00 64 1010.5
20260510021344 65 181 0.0 0.0 0.00 0.00 0.00 65 1010.6
20260510020841 66 181 0.0 0.0 0.00 0.00 0.00 60 1010.4
20260510020340 66 180 0.0 0.0 0.00 0.00 0.00 59 1010.3
20260510015836 66 180 0.0 0.0 0.00 0.00 0.00 60 1010.1
20260510015332 67 180 0.0 0.0 0.00 0.00 0.00 59 1010.1
20260510014828 67 180 0.0 0.0 0.00 0.00 0.00 58 1009.8
20260510014325 68 180 0.0 0.0 0.00 0.00 0.00 57 1009.8
20260510013821 68 180 0.0 0.0 0.00 0.00 0.00 55 1009.8
20260510013317 68 180 0.0 0.0 0.00 0.00 0.00 54 1009.9
20260510012812 69 180 0.0 0.0 0.00 0.00 0.00 54 1009.5
20260510012307 69 180 0.0 0.0 0.00 0.00 0.00 51 1009.7
20260510011801 70 180 0.0 0.0 0.00 0.00 0.00 52 1009.6
20260510011257 71 180 0.0 0.0 0.00 0.00 0.00 51 1009.6
20260510010754 72 180 0.0 0.0 0.00 0.00 0.00 49 1009.7
20260510010250 72 180 0.0 0.0 0.00 0.00 0.00 48 1009.5
20260510005748 73 180 0.0 0.0 0.00 0.00 0.00 48 1009.6
20260510005244 74 180 0.0 0.0 0.00 0.00 0.00 47 1009.4
20260510004742 74 180 0.0 0.0 0.00 0.00 0.00 45 1009.3
20260510004239 75 180 0.0 0.0 0.00 0.00 0.00 46 1009.3
20260510003736 75 180 0.0 0.0 0.00 0.00 0.00 44 1009.3
20260510003233 76 180 0.0 0.0 0.00 0.00 0.00 44 1009.3
20260510002731 77 180 0.0 0.0 0.00 0.00 0.00 43 1009.2
20260510002229 76 168 0.0 0.0 0.00 0.00 0.00 42 1009.3
20260510001726 77 168 0.0 0.0 0.00 0.00 0.00 43 1009.2
20260510001224 77 168 0.0 0.0 0.00 0.00 0.00 43 1009.3
20260510000719 77 171 0.0 0.0 0.00 0.00 0.00 40 1009.2
20260510000212 77 176 0.0 0.0 0.00 0.00 0.00 41 1009.4
20260509235708 77 153 0.0 0.0 0.00 0.00 0.00 40 1009.3
20260509235204 78 169 0.0 0.0 0.00 0.00 0.00 39 1009.4
20260509234701 78 162 0.0 0.0 0.00 0.00 0.00 37 1009.3
20260509234158 78 169 0.0 0.0 0.00 0.00 0.00 38 1009.3
20260509233656 78 149 0.0 0.0 0.00 0.00 0.00 38 1009.1
20260509233153 78 169 0.0 0.0 0.00 0.00 0.00 38 1009.2
20260509232649 78 161 0.0 0.9 0.00 0.00 0.00 37 1009.2
20260509232146 79 164 0.0 0.9 0.00 0.00 0.00 37 1009.1
20260509231643 79 174 0.0 0.0 0.00 0.00 0.00 37 1009.3
20260509231140 79 165 0.0 0.0 0.00 0.00 0.00 38 1009.3
20260509230637 79 171 0.0 0.0 0.00 0.00 0.00 37 1009.2
20260509230134 79 180 0.0 0.0 0.00 0.00 0.00 35 1009.2
20260509225630 80 178 0.0 0.0 0.00 0.00 0.00 37 1009.2
20260509225125 80 156 0.0 0.0 0.00 0.00 0.00 33 1009.1
20260509224620 80 169 0.0 0.0 0.00 0.00 0.00 34 1009.2
20260509224118 80 167 0.0 0.0 0.00 0.00 0.00 31 1009.1
20260509223614 81 171 0.0 0.0 0.00 0.00 0.00 31 1009.2
20260509223112 81 162 0.0 0.9 0.00 0.00 0.00 32 1009.2
20260509222608 81 102 0.0 0.0 0.00 0.00 0.00 30 1009.4
20260509222104 82 190 0.0 0.0 0.00 0.00 0.00 32 1009.3
20260509221559 82 166 0.0 0.0 0.00 0.00 0.00 32 1009.2
20260509221056 82 164 0.0 0.0 0.00 0.00 0.00 34 1009.2
20260509220551 82 169 0.0 0.0 0.00 0.00 0.00 33 1009.2
20260509220048 83 147 0.0 0.0 0.00 0.00 0.00 31 1009.2
20260509215543 84 136 0.0 0.9 0.00 0.00 0.00 31 1009.1
20260509215041 84 195 0.0 0.0 0.00 0.00 0.00 32 1009.0
20260509214538 83 172 0.0 0.0 0.00 0.00 0.00 32 1009.2
20260509214035 83 193 0.0 0.0 0.00 0.00 0.00 31 1009.1
20260509213531 84 175 0.0 0.0 0.00 0.00 0.00 32 1009.2
20260509213028 85 173 0.0 0.0 0.00 0.00 0.00 34 1009.2
20260509212525 83 191 0.0 0.0 0.00 0.00 0.00 37 1009.1
20260509212022 86 117 0.0 0.0 0.00 0.00 0.00 30 1009.2
20260509211518 86 169 0.0 0.0 0.00 0.00 0.00 30 1009.2
20260509211015 85 171 0.0 0.0 0.00 0.00 0.00 31 1009.3
20260509210511 83 215 0.0 0.0 0.00 0.00 0.00 34 1009.2
20260509210008 82 173 0.0 0.0 0.00 0.00 0.00 32 1009.3
20260509205502 83 64 0.0 1.7 0.00 0.00 0.00 30 1009.4
20260509204957 83 185 0.0 0.0 0.00 0.00 0.00 31 1009.4
20260509204455 85 88 0.0 0.0 0.00 0.00 0.00 31 1009.4
20260509203951 85 193 0.0 0.0 0.00 0.00 0.00 31 1009.6
20260509203447 84 180 0.0 0.0 0.00 0.00 0.00 28 1009.4
20260509202945 83 191 0.0 0.0 0.00 0.00 0.00 36 1009.6
20260509202441 82 182 0.0 0.0 0.00 0.00 0.00 30 1009.5
20260509201936 83 45 0.0 0.9 0.00 0.00 0.00 29 1009.6
20260509201431 83 294 0.0 0.0 0.00 0.00 0.00 33 1009.7
20260509200928 83 43 0.0 0.0 0.00 0.00 0.00 36 1009.8
20260509200428 82 192 0.0 0.9 0.00 0.00 0.00 34 1009.9
20260509195925 85 159 0.0 0.0 0.00 0.00 0.00 32 1010.0
20260509195421 84 152 0.0 0.0 0.00 0.00 0.00 32 1010.0
20260509194914 86 253 0.0 0.0 0.00 0.00 0.00 33 1010.1
20260509194411 84 194 0.0 0.0 0.00 0.00 0.00 33 1010.0
20260509193907 84 59 0.0 0.0 0.00 0.00 0.00 30 1010.1
20260509193402 84 175 0.0 0.0 0.00 0.00 0.00 33 1010.1
20260509192858 85 97 0.0 0.0 0.00 0.00 0.00 30 1010.1
20260509192354 84 199 0.0 0.0 0.00 0.00 0.00 37 1010.1
20260509191850 84 59 0.9 2.6 0.00 0.00 0.00 33 1010.1
20260509191345 83 180 0.0 0.0 0.00 0.00 0.00 38 1009.9
20260509190842 82 184 0.0 0.0 0.00 0.00 0.00 35 1010.0
20260509190339 83 182 0.0 0.0 0.00 0.00 0.00 30 1010.2
20260509185836 83 176 0.0 0.0 0.00 0.00 0.00 35 1010.1
20260509185333 82 135 0.0 0.9 0.00 0.00 0.00 33 1010.2
20260509184830 82 70 0.0 2.6 0.00 0.00 0.00 33 1010.1
20260509184327 83 117 0.0 0.0 0.00 0.00 0.00 35 1010.2
20260509183824 81 145 0.0 0.9 0.00 0.00 0.00 34 1010.0
20260509183319 84 52 0.0 0.0 0.00 0.00 0.00 34 1010.0
20260509182815 85 167 0.0 0.0 0.00 0.00 0.00 35 1010.1
20260509182312 84 180 0.0 0.0 0.00 0.00 0.00 37 1010.1
20260509181809 85 96 0.0 0.0 0.00 0.00 0.00 33 1010.0
20260509181307 85 174 0.0 0.0 0.00 0.00 0.00 35 1010.1
20260509180804 84 179 0.0 0.0 0.00 0.00 0.00 36 1010.1
20260509180300 83 56 0.0 0.0 0.00 0.00 0.00 29 1010.2
20260509175756 82 77 0.0 0.0 0.00 0.00 0.00 31 1010.1
20260509175253 81 36 0.0 0.0 0.00 0.00 0.00 32 1010.3
20260509174749 83 129 0.0 0.0 0.00 0.00 0.00 36 1010.2
20260509174244 81 172 0.0 0.0 0.00 0.00 0.00 37 1010.2
20260509173741 80 110 0.0 0.0 0.00 0.00 0.00 37 1010.2
20260509173236 81 161 0.0 0.0 0.00 0.00 0.00 38 1010.2
20260509172733 82 183 0.0 0.0 0.00 0.00 0.00 36 1010.3
20260509172229 83 170 0.0 0.0 0.00 0.00 0.00 39 1010.5
20260509171724 83 154 0.0 0.0 0.00 0.00 0.00 38 1010.6
20260509171221 82 176 0.0 0.0 0.00 0.00 0.00 38 1010.6
20260509170718 82 96 0.0 0.0 0.00 0.00 0.00 39 1010.9
20260509170214 82 167 0.0 0.0 0.00 0.00 0.00 43 1010.6
20260509165713 80 165 0.0 0.0 0.00 0.00 0.00 37 1010.4
20260509165208 79 164 0.0 0.0 0.00 0.00 0.00 40 1010.5
20260509164704 79 69 0.0 0.9 0.00 0.00 0.00 41 1010.4
20260509164200 80 34 0.9 1.7 0.00 0.00 0.00 41 1010.5
20260509163658 79 65 0.0 1.7 0.00 0.00 0.00 39 1010.5
20260509163154 80 137 0.0 0.0 0.00 0.00 0.00 40 1010.5
20260509162652 78 133 0.0 0.0 0.00 0.00 0.00 41 1010.5
20260509162147 79 43 0.0 0.9 0.00 0.00 0.00 41 1010.6
20260509161643 78 92 0.0 0.9 0.00 0.00 0.00 43 1010.4
20260509161138 79 164 0.0 0.9 0.00 0.00 0.00 43 1010.5
20260509160634 78 138 0.0 0.0 0.00 0.00 0.00 45 1010.5
20260509160130 78 131 0.0 0.9 0.00 0.00 0.00 45 1010.7
20260509155626 78 171 0.0 0.0 0.00 0.00 0.00 49 1010.3
20260509155123 77 138 0.0 0.0 0.00 0.00 0.00 49 1010.5
20260509154618 78 119 0.0 0.0 0.00 0.00 0.00 48 1010.5
20260509154116 79 145 0.0 0.0 0.00 0.00 0.00 46 1010.4
20260509153613 78 161 0.0 0.0 0.00 0.00 0.00 48 1010.3
20260509153110 78 165 0.0 0.0 0.00 0.00 0.00 58 1010.3
20260509152605 77 173 0.0 0.0 0.00 0.00 0.00 61 1010.4
20260509152103 76 168 0.0 0.0 0.00 0.00 0.00 55 1010.3
20260509151559 75 147 0.0 0.0 0.00 0.00 0.00 58 1010.3
20260509151057 73 167 0.0 0.0 0.00 0.00 0.00 59 1010.4
20260509150554 74 126 0.0 0.0 0.00 0.00 0.00 60 1010.3
20260509150053 75 195 0.0 0.0 0.00 0.00 0.00 60 1010.5
20260509145548 76 162 0.0 0.9 0.00 0.00 0.00 60 1010.3
20260509145043 74 174 0.0 0.0 0.00 0.00 0.00 63 1010.4
20260509144540 73 161 0.0 0.0 0.00 0.00 0.00 65 1010.2